Little Rock AFB, AR

2:08 AM CDT on May 26, 2018 (GMT -0500)
Little Rock Air Force Base

Weather History for KLRF - September, 2012

Change the Weather History Date:

Tuesday, September 11, 2012

  Actual Average Record
Temperature  
Mean Temperature 72 °F -  
Max Temperature 87 °F 84 °F 97 °F (1983)
Min Temperature 57 °F 63 °F 44 °F (1976)
Cooling Degree Days 6    
Growing Degree Days 22 (Base 50)    
Moisture  
Dew Point 59 °F    
Average Humidity 69    
Maximum Humidity 93    
Minimum Humidity 40    
Precipitation  
Precipitation 0.00 in - - ()
Sea Level Pressure  
Sea Level Pressure 30.12 in    
Wind  
Wind Speed 1 mph (ESE)    
Max Wind Speed 8 mph    
Max Gust Speed -    
Visibility 10 miles    
Events      
Averages and records for this station are not official NWS values.
T = Trace of Precipitation, MM = Missing Value Source: NWS Daily Summary

Daily Weather History Graph

Daily Weather History Graph

Search for Another Location

Airport or City:

Astronomy

Sep. 11, 2012 Rise Set
Actual Time 6:48 AM CDT 7:20 PM CDT
Civil Twilight 6:23 AM CDT 7:45 PM CDT
Nautical Twilight 5:53 AM CDT 8:15 PM CDT
Astronomical Twilight 5:23 AM CDT 8:46 PM CDT
Moon 2:15 AM CDT (9/11) 4:23 PM CDT (9/11)
Length of Visible Light 13h 22m
Length of Day
12h 31m
Waning Crescent, 21% of the Moon is Illuminated
Sep 11
Waning Crescent
Sep 15
New
Sep 22
First Quarter
Sep 29
Full
Oct 8
Last Quarter

Hourly Weather History & Observations

Time (CDT) Temp. Heat Index Dew Point Humidity Pressure Visibility Wind Dir Wind Speed Gust Speed Precip Events Conditions
12:55 AM 60.8 °F - 57.6 °F 89% 30.11 in 10.0 mi Calm Calm - N/A   Clear
1:55 AM 60.3 °F - 56.7 °F 88% 30.11 in 10.0 mi Calm Calm - N/A   Clear
2:55 AM 58.8 °F - 55.8 °F 90% 30.11 in 10.0 mi Calm Calm - N/A   Clear
3:55 AM 57.9 °F - 55.9 °F 93% 30.10 in 10.0 mi Calm Calm - N/A   Clear
4:55 AM 57.9 °F - 55.9 °F 93% 30.11 in 10.0 mi Calm Calm - N/A   Clear
5:55 AM 57.6 °F - 55.2 °F 92% 30.13 in 10.0 mi Calm Calm - N/A   Clear
6:55 AM 57.6 °F - 55.2 °F 92% 30.15 in 10.0 mi Calm Calm - N/A   Clear
7:55 AM 60.4 °F - 56.3 °F 86% 30.16 in 10.0 mi Calm Calm - N/A   Clear
8:55 AM 67.8 °F - 59.4 °F 74% 30.17 in 10.0 mi Calm Calm - N/A   Clear
9:55 AM 74.1 °F - 60.3 °F 62% 30.17 in 10.0 mi Variable 3.5 mph - N/A   Clear
10:55 AM 78.3 °F - 59.9 °F 53% 30.17 in 10.0 mi South 5.8 mph - N/A   Clear
11:55 AM 81.9 °F 82.6 °F 61.5 °F 50% 30.17 in 10.0 mi Variable 3.5 mph - N/A   Clear
12:55 PM 83.5 °F 83.4 °F 59.2 °F 44% 30.15 in 10.0 mi Variable 4.6 mph - N/A   Clear
1:55 PM 84.6 °F 84.0 °F 58.5 °F 41% 30.12 in 10.0 mi NW 3.5 mph - N/A   Clear
2:55 PM 84.6 °F 84.4 °F 59.5 °F 43% 30.11 in 10.0 mi South 5.8 mph - N/A   Partly Cloudy
3:55 PM 86.2 °F 85.6 °F 59.0 °F 40% 30.08 in 10.0 mi ESE 6.9 mph - N/A   Clear
4:55 PM 86.4 °F 85.9 °F 59.5 °F 40% 30.08 in 10.0 mi ENE 8.1 mph - N/A   Partly Cloudy
5:55 PM 84.9 °F 84.8 °F 60.1 °F 43% 30.08 in 10.0 mi ESE 6.9 mph - N/A   Clear
6:55 PM 81.0 °F 81.7 °F 61.0 °F 50% 30.08 in 10.0 mi East 4.6 mph - N/A   Clear
7:55 PM 73.8 °F - 64.0 °F 72% 30.09 in 10.0 mi Calm Calm - N/A   Clear
8:55 PM 72.0 °F - 62.1 °F 71% 30.11 in 10.0 mi Calm Calm - N/A   Clear
9:55 PM 67.8 °F - 62.2 °F 82% 30.12 in 10.0 mi Calm Calm - N/A   Clear
10:55 PM 66.6 °F - 61.9 °F 85% 30.12 in 10.0 mi Calm Calm - N/A   Clear
11:55 PM 65.3 °F - 61.2 °F 86% 30.12 in 10.0 mi Calm Calm - N/A   Clear